Location: Centerville
(32.8776°N, 96.6203°W)
Time: 05:07:42
(UTC+00:00)

Sich 1 Rocket - Pass Details

Date: 17 June 2021
Orbit: 616 x 652 km, 82.5° (Epoch: 29 July)

Event Time Altitude Azimuth Distance (km) Brightness Sun altitude
Rises 02:27:11 0° 350° (N) 2,893 7.8 -9.7°
Reaches altitude 10° 02:29:26 10° 348° (NNW) 1,983 6.9 -10.1°
Maximum altitude 02:33:46 68° 266° (W) 665 3.9 -10.9°
Drops below altitude 10° 02:38:07 10° 183° (S) 1,973 5.8 -11.6°
Enters shadow 02:39:43 - 181° (S) 2,627 6.4 -11.8°
